Location: Gipe Farm
(40.9466°N, 95.5370°W)
Time: 15:57:28
(UTC-05:00)

Cosmos 1842 - Visible Passes

Search period start: 19 April 2014 00:00
Search period end: 29 April 2014 00:00
Orbit: 539 x 557 km, 82.5° (Epoch: 19 April)

Date Brightness Start Highest point End Pass type
(mag) Time Alt. Az. Time Alt. Az. Time Alt. Az.
19 Apr 6.1 03:00:22 14° ENE 03:00:22 14° ENE 03:01:46 10° NE visible
19 Apr 4.3 04:36:03 34° NW 04:36:03 34° NW 04:39:11 10° N visible
20 Apr 6.1 02:55:43 15° ENE 02:55:43 15° ENE 02:57:05 10° NE visible
20 Apr 4.5 04:31:24 31° NW 04:31:24 31° NW 04:34:17 10° N visible
21 Apr 6.1 02:51:01 15° ENE 02:51:01 15° ENE 02:52:22 10° NE visible
21 Apr 4.7 04:26:43 28° NW 04:26:43 28° NW 04:29:23 10° NNW visible
22 Apr 6.1 02:46:19 16° ENE 02:46:19 16° ENE 02:47:38 10° NE visible
22 Apr 4.8 04:22:00 25° NW 04:22:00 25° NW 04:24:27 10° NNW visible
23 Apr 6.1 02:41:34 16° NE 02:41:34 16° NE 02:42:51 10° NE visible
23 Apr 5.0 04:17:15 23° NW 04:17:15 23° NW 04:19:30 10° NNW visible
24 Apr 6.1 02:36:47 16° NE 02:36:47 16° NE 02:38:04 10° NE visible
24 Apr 5.1 04:12:28 21° NW 04:12:28 21° NW 04:14:32 10° NNW visible
25 Apr 6.0 02:31:59 17° NE 02:31:59 17° NE 02:33:15 10° NE visible
25 Apr 5.3 04:07:40 19° NW 04:07:40 19° NW 04:09:33 10° NNW visible
26 Apr 6.0 02:27:10 17° NE 02:27:10 17° NE 02:28:24 10° NNE visible
26 Apr 5.4 04:02:50 18° NW 04:02:50 18° NW 04:04:32 10° NNW visible
27 Apr 6.0 02:22:19 17° NE 02:22:19 17° NE 02:23:32 10° NNE visible
27 Apr 5.5 03:57:59 17° NW 03:57:59 17° NW 03:59:30 10° NNW visible
28 Apr 6.0 02:17:26 17° NE 02:17:26 17° NE 02:18:40 10° NNE visible
28 Apr 5.6 03:53:06 16° NW 03:53:06 16° NW 03:54:27 10° NNW visible
